This demonstration page uses our WeatherBlox Daily Observations layout. Learn more.

Left ArrowRight Arrow

39.29038, -76.61219

Hourly Observations for February 20, 2017

Temp ( °F °C ) Dew Point ( °F °C ) Humidity (%) Winds ( mph kmh ) Pressure ( in mb ) Visibility ( mi km ) Precip ( " mm )
12:54 am 00:54 undefined 55 12.8 39 3.9 55 55 undefined N/A 30.04 1017 N/A N/A
1:54 am 01:54 undefined 55 12.8 39 3.9 55 55 undefined N/A 30.05 1018 N/A N/A
2:54 am 02:54 undefined 53 11.7 39 3.9 59 59 undefined N/A 30.07 1018 N/A N/A
3:54 am 03:54 undefined 53 11.7 38 3.3 57 57 undefined N/A 30.10 1019 N/A N/A
4:54 am 04:54 undefined 53 11.7 37 2.8 55 55 undefined N/A 30.12 1020 N/A N/A
5:54 am 05:54 undefined 50 10 37 2.8 61 61 undefined N/A 30.14 1021 N/A N/A
6:54 am 06:54 undefined 50 10 36 2.2 59 59 undefined N/A 30.17 1022 N/A N/A
7:54 am 07:54 undefined 53 11.7 34 1.1 48 48 undefined N/A 30.21 1023 N/A N/A
8:54 am 08:54 undefined 55 12.8 32 undefined 42 42 undefined N/A 30.24 1024 N/A N/A
9:54 am 09:54 undefined 57 13.9 31 -0.6 37 37 undefined N/A 30.24 1024 N/A N/A
10:54 am 10:54 undefined 58 14.4 28 -2.2 32 32 undefined N/A 30.24 1024 N/A N/A
11:54 am 11:54 undefined 60 15.6 28 -2.2 30 30 undefined N/A 30.24 1024 N/A N/A
12:54 pm 12:54 undefined 61 16.1 26 -3.3 26 26 undefined N/A 30.21 1023 N/A N/A
1:54 pm 13:54 undefined 61 16.1 27 -2.8 27 27 undefined N/A 30.20 1023 N/A N/A
2:54 pm 14:54 undefined 62 16.7 28 -2.2 28 28 undefined N/A 30.20 1023 N/A N/A
3:54 pm 15:54 undefined 61 16.1 28 -2.2 29 29 undefined N/A 30.20 1023 N/A N/A
4:54 pm 16:54 undefined 60 15.6 27 -2.8 28 28 undefined N/A 30.22 1023 N/A N/A
5:54 pm 17:54 undefined 59 15 26 -3.3 28 28 undefined N/A 30.24 1024 N/A N/A
6:54 pm 18:54 undefined 56 13.3 26 -3.3 32 32 undefined N/A 30.27 1025 N/A N/A
7:54 pm 19:54 undefined 56 13.3 25 -3.9 30 30 undefined N/A 30.27 1025 N/A N/A
8:54 pm 20:54 undefined 54 12.2 25 -3.9 33 33 undefined N/A 30.28 1026 N/A N/A
9:54 pm 21:54 undefined 52 11.1 26 -3.3 37 37 undefined N/A 30.30 1026 N/A N/A
10:54 pm 22:54 undefined 51 10.6 24 -4.4 35 35 undefined N/A 30.32 1027 N/A N/A
11:54 pm 23:54 undefined 49 9.4 19 -7.2 31 31 undefined N/A 30.33 1027 N/A N/A

Powered by AerisWeather